Location: Coupvray
(48.8929°N, 2.7967°E)
Time: 21:12:23
(UTC+00:00)

Meteor 1-18 Rocket - Pass Details

Date: 14 July 2020
Orbit: 836 x 909 km, 81.2° (Epoch: 14 August)

Event Time Altitude Azimuth Distance (km) Brightness Sun altitude
Rises 01:01:12 0° 347° (NNW) 3,523 8.5 -17.9°
Reaches altitude 10° 01:03:41 10° 346° (NNW) 2,569 7.6 -17.8°
Maximum altitude 01:09:32 80° 261° (W) 898 4.2 -17.5°
Enters shadow 01:12:52 26° 178° (S) 1,637 5.2 -17.4°
